• MPC Preparation (Info)

  • MPEC 2023-K52 : 2014 WL616

    The following Minor Planet Electronic Circular may be linked-to from your own Web pages, but must not otherwise be redistributed electronically.

    A form allowing access to any MPEC is at the bottom of this page.


    Read MPEC 2023-K51 Read MPEC 2023-K53


    M.P.E.C. 2023-K52                                  Issued 2023 May 18, 16:48 UT
    
         The Minor Planet Electronic Circulars contain information on unusual
             minor planets, routine data on comets and natural satellites,
             and occasional editorial announcements.  They are published
        on behalf of Division F of the International Astronomical Union by the
              Minor Planet Center, Smithsonian Astrophysical Observatory,
                              Cambridge, MA 02138, U.S.A.
    			  
                 Prepared using the Tamkin Foundation Computer Network
    
                                  MPC@CFA.HARVARD.EDU
                URL https://www.minorplanetcenter.net/    ISSN 1523-6714
    
                                   2014 WL616                                
    
    
    Observations:
         K14Wz6L*ZC2014 11 29.51121 08 40 28.43 +12 01 21.8          22.1 w EK052F51
         K14Wz6L ZC2014 11 29.52379 08 40 28.39 +12 01 22.0          21.9 w EK052F51
         K14Wz6L ZC2014 11 29.53639 08 40 28.36 +12 01 21.8          21.9 w EK052F51
         K14Wz6L ZC2014 11 29.54902 08 40 28.35 +12 01 22.0          22.0 w EK052F51
         K14Wz6L ZC2015 01 26.50324 08 36 35.63 +12 17 45.8          21.7 w EK052F51
         K14Wz6L ZC2015 01 26.51696 08 36 35.56 +12 17 46.4          21.6 w EK052F51
         K14Wz6L ZC2015 01 26.53077 08 36 35.48 +12 17 46.4          21.7 w EK052F51
         K14Wz6L ZC2015 01 26.54450 08 36 35.41 +12 17 47.0          21.6 w EK052F51
         K14Wz6L ZC2015 02 18.28696 08 34 42.18 +12 28 05.8          21.8 w EK052F51
         K14Wz6L ZC2015 02 18.29991 08 34 42.12 +12 28 05.9          21.9 w EK052F51
         K14Wz6L ZC2015 02 18.32546 08 34 42.00 +12 28 06.6          21.6 w EK052F51
         K14Wz6L ZC2017 01 26.38113 08 49 30.19 +12 48 30.2          21.8 w EK052F51
         K14Wz6L ZC2017 01 26.39192 08 49 30.13 +12 48 30.5          21.7 w EK052F51
         K14Wz6L ZC2017 01 26.40271 08 49 30.08 +12 48 30.7          21.7 w EK052F51
         K14Wz6L ZC2017 01 26.41365 08 49 30.02 +12 48 31.2          21.7 w EK052F51
         K14Wz6L ZC2017 02 03.46848 08 48 49.03 +12 52 11.1          21.7 w EK052F51
         K14Wz6L ZC2017 02 03.47986 08 48 48.97 +12 52 11.4          21.6 w EK052F51
         K14Wz6L ZC2017 02 03.49122 08 48 48.88 +12 52 11.2          21.7 w EK052F51
         K14Wz6L ZC2017 02 03.50260 08 48 48.85 +12 52 12.1          21.7 w EK052F51
         K14Wz6L ZC2017 02 19.24063 08 47 31.46 +12 59 35.5          21.8 w EK052F51
         K14Wz6L ZC2017 02 19.25122 08 47 31.40 +12 59 35.8          22.2 w EK052F51
         K14Wz6L ZC2017 02 19.26180 08 47 31.36 +12 59 36.1          21.6 w EK052F51
         K14Wz6L ZC2017 02 19.27235 08 47 31.31 +12 59 36.3          21.8 w EK052F51
    
    Observer details:
    F51 Pan-STARRS 1, Haleakala.  Observers J. Bulger, T. Lowe, A. Schultz, I.
        Smith, T. Goggia, N. Primak, J. Thiel, S. Watters.  Measurers J.
        Kurlander, M. Holman, M. Payne, A. Heinze, P. Bernardinelli, M. Lackner.
        1.8-m Ritchey-Chretien + CCD.
    
    Orbital elements:
    2014 WL616                                                                      
    Epoch 2023 Feb. 25.0 TT = JDT 2460000.5                 Alexandersen            
    M  33.40673              (2000.0)            P               Q                  
    n   0.00308801     Peri.  310.80033     -0.07964173     -0.96135358             
    a  46.7035778      Node   141.24009     +0.99333370     -0.09864274             
    e   0.1813173      Incl.   24.89526     +0.08333881     +0.25703872             
    P 319              H    5.93          G   0.15           U   6                  
    Residuals in seconds of arc
    141129 F51  0.1+  0.0     150218 F51  0.0   0.3+    170203 F51  0.1+  0.0
    141129 F51  0.1-  0.1+    150218 F51  0.0   0.0     170203 F51  0.3-  0.5-
    141129 F51  0.2-  0.2-    150218 F51  0.0   0.0     170203 F51  0.1+  0.1+
    141129 F51  0.1+  0.0     170126 F51  0.0   0.1+    170219 F51  0.0   0.0
    150126 F51  0.1+  0.1-    170126 F51  0.0   0.1+    170219 F51  0.2-  0.0
    150126 F51  0.1+  0.1+    170126 F51  0.1+  0.0     170219 F51  0.0   0.0
    150126 F51  0.0   0.2-    170126 F51  0.0   0.2+    170219 F51  0.0   0.1-
    150126 F51  0.0   0.0     170203 F51  0.2+  0.1+
    
    Ephemeris:
    2014 WL616               a,e,i = 46.70, 0.18, 25                 q = 38.2354
    Date    TT    R. A. (2000) Decl.     Delta      r    Elong.  Phase     V
    2023 04 18    09 22 30.0 +14 38 39  39.8726 40.2436   111.0     1.3    22.1
    ...
    2023 05 03    09 22 23.8 +14 41 02  40.1244 40.2488    96.4     1.4    22.2
    ...
    2023 05 11    09 22 29.4 +14 41 36  40.2627 40.2515    88.6     1.4    22.2
    ...
    2023 05 17    09 22 37.7 +14 41 43  40.3663 40.2536    82.9     1.4    22.2
    2023 05 18    09 22 39.4 +14 41 42  40.3834 40.2539    81.9     1.4    22.2
    2023 05 19    09 22 41.2 +14 41 41  40.4006 40.2543    81.0     1.4    22.2
    ...
    2023 05 25    09 22 54.0 +14 41 26  40.5022 40.2563    75.3     1.4    22.2
    ...
    2023 06 02    09 23 16.1 +14 40 41  40.6335 40.2591    67.7     1.3    22.2
    ...
    2023 06 17    09 24 12.1 +14 38 06  40.8596 40.2642    53.5     1.2    22.2
    
    M. P. C. Staff               (C) Copyright 2023 MPC           M.P.E.C. 2023-K52
    


    Read MPEC 2023-K51 Read MPEC 2023-K53


    MPEC number:

    Enter an MPEC number in one of the following forms:

    • 1997-B01 (the full form)
    • J97B01 (the packed version of the full form)
    • B01 (the abbreviated form)